Home   Weather   Rio Grande   Past weeks

Flag for Brazil Past Weather in Rio Grande, Rio Grande do Sul, Brazil — Yesterday and Last 2 Weeks

68 °F

Passing clouds.

Feels Like: 68 °F
Forecast: 65 / 71 °F
Wind: 3 mph from South

Location: Porto Alegre Aero-Porto

Current Time: Oct 24, 2016 at 5:04:44 AM

Latest Report: Oct 24, 2016 at 4:00 AM

Visibility: N/A

Pressure: 29.92 "Hg

Humidity: 88%

Dew Point: 64 °F

Location of Rio GrandeLocation

Past Weather in Rio Grande — Graph


Rio Grande Temperature Yesterday

Maximum temperature yesterday: 84 °F (at 5:00 PM)
Minimum temperature yesterday: 63 °F (at 7:00 AM)
Average temperature yesterday: 72 °F

High & Low Weather Summary for the Past Weeks

High84 °F (Oct 11, 4:00 PM)100% (Oct 17, 6:00 AM)30.27 "Hg (Oct 17, 6:00 AM)
Low32 °F (Oct 17, 9:00 AM)17% (Oct 10, 3:00 PM)29.68 "Hg (Oct 13, 5:00 AM)
Average68 °F75%29.95 "Hg
* Reported Oct 9 3:00 AM — Oct 24 4:00 AM, Rio Grande, Weather by CustomWeather, © 2016

Note: Actual official high and low records may vary slightly from our data, if they occured in-between our weather recording intervals... More about our weather records


Rio Grande Weather History for the Previous 24 Hours

Scroll right to see more
Time TempWeatherWind HumidityBarometerVisibility
4:00 AM
Mon, Oct 24
68 °FPassing clouds.3 mph88%29.92 "HgN/A
3:00 AM68 °FClear.5 mph88%29.92 "Hg10 mi
2:00 AM68 °FClear.8 mph88%29.92 "Hg10 mi
1:00 AM68 °FClear.5 mph88%29.92 "Hg10 mi
12:00 AM70 °FClear.7 mph83%29.95 "Hg10 mi
11:00 PM
Sun, Oct 23
70 °FClear.9 mph83%29.95 "Hg10 mi
10:00 PM72 °FClear.9 mph78%29.95 "Hg10 mi
9:00 PM73 °FClear.9 mph74%29.95 "Hg10 mi
8:00 PM75 °FClear.10 mph69%29.92 "Hg10 mi
7:00 PM79 °FSunny.7 mph61%29.92 "Hg10 mi
6:00 PM82 °FSunny.5 mph51%29.92 "Hg10 mi
5:00 PM84 °FSunny.5 mph48%29.92 "Hg10 mi
4:00 PM82 °FSunny.8 mph51%29.95 "Hg10 mi
3:00 PM82 °FSunny.5 mph51%29.98 "Hg10 mi
2:00 PM81 °FSunny.3 mph51%30.01 "Hg10 mi
1:00 PM79 °FScattered clouds.2 mph51%30.04 "HgN/A
12:00 PM75 °FBroken clouds.3 mph57%30.04 "HgN/A
11:00 AM75 °FSunny.5 mph54%30.04 "Hg10 mi
10:00 AM73 °FSunny.6 mph61%30.04 "Hg10 mi
9:00 AM70 °FSunny.5 mph69%30.07 "Hg10 mi
8:00 AM64 °FSunny.6 mph83%30.04 "Hg10 mi
7:00 AM63 °FSunny.5 mph83%30.01 "Hg10 mi
6:00 AM64 °FClear.7 mph78%30.01 "Hg10 mi
5:00 AM64 °FClear.5 mph83%30.04 "Hg10 mi
Weather by CustomWeather, © 2016

See weather overviewHow to use our weather pages